Index of /20260503/WXO-DD/model_rdps/10km/06/043
Name Last modified Size Description
Parent Directory -
20260503T06Z_MSC_RDPS_AbsoluteVorticity_IsbL-0250_RLatLon0.09_PT043H.grib2 2026-05-03 08:57 614K
20260503T06Z_MSC_RDPS_AbsoluteVorticity_IsbL-0500_RLatLon0.09_PT043H.grib2 2026-05-03 08:57 696K
20260503T06Z_MSC_RDPS_AbsoluteVorticity_IsbL-0700_RLatLon0.09_PT043H.grib2 2026-05-03 08:57 618K
20260503T06Z_MSC_RDPS_AbsoluteVorticity_IsbL-0850_RLatLon0.09_PT043H.grib2 2026-05-03 08:57 784K
20260503T06Z_MSC_RDPS_AirTemp_AGL-120m_RLatLon0.09_PT043H.grib2 2026-05-03 08:57 387K
20260503T06Z_MSC_RDPS_AirTemp_AGL-2m_RLatLon0.09_PT043H.grib2 2026-05-03 08:57 623K
20260503T06Z_MSC_RDPS_AirTemp_AGL-40m_RLatLon0.09_PT043H.grib2 2026-05-03 08:57 397K
20260503T06Z_MSC_RDPS_AirTemp_AGL-80m_RLatLon0.09_PT043H.grib2 2026-05-03 08:57 390K
20260503T06Z_MSC_RDPS_AirTemp_IsbL-0001_RLatLon0.09_PT043H.grib2 2026-05-03 08:57 309K
20260503T06Z_MSC_RDPS_AirTemp_IsbL-0005_RLatLon0.09_PT043H.grib2 2026-05-03 08:57 293K
20260503T06Z_MSC_RDPS_AirTemp_IsbL-0010_RLatLon0.09_PT043H.grib2 2026-05-03 08:57 301K
20260503T06Z_MSC_RDPS_AirTemp_IsbL-0020_RLatLon0.09_PT043H.grib2 2026-05-03 08:57 319K
20260503T06Z_MSC_RDPS_AirTemp_IsbL-0030_RLatLon0.09_PT043H.grib2 2026-05-03 08:57 338K
20260503T06Z_MSC_RDPS_AirTemp_IsbL-0050_RLatLon0.09_PT043H.grib2 2026-05-03 08:57 318K
20260503T06Z_MSC_RDPS_AirTemp_IsbL-0100_RLatLon0.09_PT043H.grib2 2026-05-03 08:57 433K
20260503T06Z_MSC_RDPS_AirTemp_IsbL-0150_RLatLon0.09_PT043H.grib2 2026-05-03 08:57 424K
20260503T06Z_MSC_RDPS_AirTemp_IsbL-0175_RLatLon0.09_PT043H.grib2 2026-05-03 08:57 413K
20260503T06Z_MSC_RDPS_AirTemp_IsbL-0200_RLatLon0.09_PT043H.grib2 2026-05-03 08:57 416K
20260503T06Z_MSC_RDPS_AirTemp_IsbL-0225_RLatLon0.09_PT043H.grib2 2026-05-03 08:57 419K
20260503T06Z_MSC_RDPS_AirTemp_IsbL-0250_RLatLon0.09_PT043H.grib2 2026-05-03 08:57 425K
20260503T06Z_MSC_RDPS_AirTemp_IsbL-0275_RLatLon0.09_PT043H.grib2 2026-05-03 08:57 406K
20260503T06Z_MSC_RDPS_AirTemp_IsbL-0300_RLatLon0.09_PT043H.grib2 2026-05-03 08:57 411K
20260503T06Z_MSC_RDPS_AirTemp_IsbL-0350_RLatLon0.09_PT043H.grib2 2026-05-03 08:57 427K
20260503T06Z_MSC_RDPS_AirTemp_IsbL-0400_RLatLon0.09_PT043H.grib2 2026-05-03 08:57 431K
20260503T06Z_MSC_RDPS_AirTemp_IsbL-0450_RLatLon0.09_PT043H.grib2 2026-05-03 08:57 440K
20260503T06Z_MSC_RDPS_AirTemp_IsbL-0500_RLatLon0.09_PT043H.grib2 2026-05-03 08:57 453K
20260503T06Z_MSC_RDPS_AirTemp_IsbL-0550_RLatLon0.09_PT043H.grib2 2026-05-03 08:57 471K
20260503T06Z_MSC_RDPS_AirTemp_IsbL-0600_RLatLon0.09_PT043H.grib2 2026-05-03 08:57 451K
20260503T06Z_MSC_RDPS_AirTemp_IsbL-0650_RLatLon0.09_PT043H.grib2 2026-05-03 08:57 464K
20260503T06Z_MSC_RDPS_AirTemp_IsbL-0700_RLatLon0.09_PT043H.grib2 2026-05-03 08:57 379K
20260503T06Z_MSC_RDPS_AirTemp_IsbL-0750_RLatLon0.09_PT043H.grib2 2026-05-03 08:57 408K
20260503T06Z_MSC_RDPS_AirTemp_IsbL-0800_RLatLon0.09_PT043H.grib2 2026-05-03 08:57 452K
20260503T06Z_MSC_RDPS_AirTemp_IsbL-0850_RLatLon0.09_PT043H.grib2 2026-05-03 08:57 503K
20260503T06Z_MSC_RDPS_AirTemp_IsbL-0875_RLatLon0.09_PT043H.grib2 2026-05-03 08:57 521K
20260503T06Z_MSC_RDPS_AirTemp_IsbL-0900_RLatLon0.09_PT043H.grib2 2026-05-03 08:57 527K
20260503T06Z_MSC_RDPS_AirTemp_IsbL-0925_RLatLon0.09_PT043H.grib2 2026-05-03 08:57 521K
20260503T06Z_MSC_RDPS_AirTemp_IsbL-0950_RLatLon0.09_PT043H.grib2 2026-05-03 08:57 518K
20260503T06Z_MSC_RDPS_AirTemp_IsbL-0970_RLatLon0.09_PT043H.grib2 2026-05-03 08:57 510K
20260503T06Z_MSC_RDPS_AirTemp_IsbL-0985_RLatLon0.09_PT043H.grib2 2026-05-03 08:57 497K
20260503T06Z_MSC_RDPS_AirTemp_IsbL-1000_RLatLon0.09_PT043H.grib2 2026-05-03 08:57 484K
20260503T06Z_MSC_RDPS_AirTemp_IsbL-1015_RLatLon0.09_PT043H.grib2 2026-05-03 08:57 487K
20260503T06Z_MSC_RDPS_Albedo_Sfc_RLatLon0.09_PT043H.grib2 2026-05-03 08:57 157K
20260503T06Z_MSC_RDPS_CAPE_Sfc_RLatLon0.09_PT043H.grib2 2026-05-03 08:57 1.8M
20260503T06Z_MSC_RDPS_CIN_Sfc_RLatLon0.09_PT043H.grib2 2026-05-03 08:57 1.3M
20260503T06Z_MSC_RDPS_CloudWater_EAtm_RLatLon0.09_PT043H.grib2 2026-05-03 08:57 223K
20260503T06Z_MSC_RDPS_ConvectivePrecip-Accum_Sfc_RLatLon0.09_PT043H.grib2 2026-05-03 08:57 1.0M
20260503T06Z_MSC_RDPS_DewPointDepression_AGL-2m_RLatLon0.09_PT043H.grib2 2026-05-03 08:57 410K
20260503T06Z_MSC_RDPS_DewPointDepression_IsbL-0001_RLatLon0.09_PT043H.grib2 2026-05-03 08:57 193
20260503T06Z_MSC_RDPS_DewPointDepression_IsbL-0005_RLatLon0.09_PT043H.grib2 2026-05-03 08:57 193
20260503T06Z_MSC_RDPS_DewPointDepression_IsbL-0010_RLatLon0.09_PT043H.grib2 2026-05-03 08:57 193
20260503T06Z_MSC_RDPS_DewPointDepression_IsbL-0020_RLatLon0.09_PT043H.grib2 2026-05-03 08:57 193
20260503T06Z_MSC_RDPS_DewPointDepression_IsbL-0030_RLatLon0.09_PT043H.grib2 2026-05-03 08:57 193
20260503T06Z_MSC_RDPS_DewPointDepression_IsbL-0050_RLatLon0.09_PT043H.grib2 2026-05-03 08:57 79K
20260503T06Z_MSC_RDPS_DewPointDepression_IsbL-0100_RLatLon0.09_PT043H.grib2 2026-05-03 08:57 119K
20260503T06Z_MSC_RDPS_DewPointDepression_IsbL-0150_RLatLon0.09_PT043H.grib2 2026-05-03 08:57 150K
20260503T06Z_MSC_RDPS_DewPointDepression_IsbL-0175_RLatLon0.09_PT043H.grib2 2026-05-03 08:57 185K
20260503T06Z_MSC_RDPS_DewPointDepression_IsbL-0200_RLatLon0.09_PT043H.grib2 2026-05-03 08:57 224K
20260503T06Z_MSC_RDPS_DewPointDepression_IsbL-0225_RLatLon0.09_PT043H.grib2 2026-05-03 08:57 264K
20260503T06Z_MSC_RDPS_DewPointDepression_IsbL-0250_RLatLon0.09_PT043H.grib2 2026-05-03 08:57 301K
20260503T06Z_MSC_RDPS_DewPointDepression_IsbL-0275_RLatLon0.09_PT043H.grib2 2026-05-03 08:57 307K
20260503T06Z_MSC_RDPS_DewPointDepression_IsbL-0300_RLatLon0.09_PT043H.grib2 2026-05-03 08:57 323K
20260503T06Z_MSC_RDPS_DewPointDepression_IsbL-0350_RLatLon0.09_PT043H.grib2 2026-05-03 08:57 332K
20260503T06Z_MSC_RDPS_DewPointDepression_IsbL-0400_RLatLon0.09_PT043H.grib2 2026-05-03 08:57 343K
20260503T06Z_MSC_RDPS_DewPointDepression_IsbL-0450_RLatLon0.09_PT043H.grib2 2026-05-03 08:57 348K
20260503T06Z_MSC_RDPS_DewPointDepression_IsbL-0500_RLatLon0.09_PT043H.grib2 2026-05-03 08:57 354K
20260503T06Z_MSC_RDPS_DewPointDepression_IsbL-0550_RLatLon0.09_PT043H.grib2 2026-05-03 08:57 364K
20260503T06Z_MSC_RDPS_DewPointDepression_IsbL-0600_RLatLon0.09_PT043H.grib2 2026-05-03 08:57 374K
20260503T06Z_MSC_RDPS_DewPointDepression_IsbL-0650_RLatLon0.09_PT043H.grib2 2026-05-03 08:57 384K
20260503T06Z_MSC_RDPS_DewPointDepression_IsbL-0700_RLatLon0.09_PT043H.grib2 2026-05-03 08:57 396K
20260503T06Z_MSC_RDPS_DewPointDepression_IsbL-0750_RLatLon0.09_PT043H.grib2 2026-05-03 08:57 412K
20260503T06Z_MSC_RDPS_DewPointDepression_IsbL-0800_RLatLon0.09_PT043H.grib2 2026-05-03 08:57 447K
20260503T06Z_MSC_RDPS_DewPointDepression_IsbL-0850_RLatLon0.09_PT043H.grib2 2026-05-03 08:57 475K
20260503T06Z_MSC_RDPS_DewPointDepression_IsbL-0875_RLatLon0.09_PT043H.grib2 2026-05-03 08:57 474K
20260503T06Z_MSC_RDPS_DewPointDepression_IsbL-0900_RLatLon0.09_PT043H.grib2 2026-05-03 08:57 462K
20260503T06Z_MSC_RDPS_DewPointDepression_IsbL-0925_RLatLon0.09_PT043H.grib2 2026-05-03 08:57 450K
20260503T06Z_MSC_RDPS_DewPointDepression_IsbL-0950_RLatLon0.09_PT043H.grib2 2026-05-03 08:57 441K
20260503T06Z_MSC_RDPS_DewPointDepression_IsbL-0970_RLatLon0.09_PT043H.grib2 2026-05-03 08:57 434K
20260503T06Z_MSC_RDPS_DewPointDepression_IsbL-0985_RLatLon0.09_PT043H.grib2 2026-05-03 08:57 428K
20260503T06Z_MSC_RDPS_DewPointDepression_IsbL-1000_RLatLon0.09_PT043H.grib2 2026-05-03 08:57 422K
20260503T06Z_MSC_RDPS_DewPointDepression_IsbL-1015_RLatLon0.09_PT043H.grib2 2026-05-03 08:57 413K
20260503T06Z_MSC_RDPS_DewPoint_AGL-2m_RLatLon0.09_PT043H.grib2 2026-05-03 08:57 304K
20260503T06Z_MSC_RDPS_DownwardLongwaveRadiationFlux-Accum_Sfc_RLatLon0.09_PT043H.grib2 2026-05-03 08:57 360K
20260503T06Z_MSC_RDPS_DownwardShortwaveRadiationFlux-Accum_NTAtm_RLatLon0.09_PT043H.grib2 2026-05-03 08:57 122K
20260503T06Z_MSC_RDPS_DownwardShortwaveRadiationFlux-Accum_Sfc_RLatLon0.09_PT043H.grib2 2026-05-03 08:57 559K
20260503T06Z_MSC_RDPS_FreezingRain-Accum1h_Sfc_RLatLon0.09_PT043H.grib2 2026-05-03 08:57 21K
20260503T06Z_MSC_RDPS_FreezingRain-Accum_Sfc_RLatLon0.09_PT043H.grib2 2026-05-03 08:57 148K
20260503T06Z_MSC_RDPS_GeopotentialHeight_IsbL-0001_RLatLon0.09_PT043H.grib2 2026-05-03 08:57 315K
20260503T06Z_MSC_RDPS_GeopotentialHeight_IsbL-0005_RLatLon0.09_PT043H.grib2 2026-05-03 08:57 338K
20260503T06Z_MSC_RDPS_GeopotentialHeight_IsbL-0010_RLatLon0.09_PT043H.grib2 2026-05-03 08:57 306K
20260503T06Z_MSC_RDPS_GeopotentialHeight_IsbL-0020_RLatLon0.09_PT043H.grib2 2026-05-03 08:57 402K
20260503T06Z_MSC_RDPS_GeopotentialHeight_IsbL-0030_RLatLon0.09_PT043H.grib2 2026-05-03 08:57 405K
20260503T06Z_MSC_RDPS_GeopotentialHeight_IsbL-0050_RLatLon0.09_PT043H.grib2 2026-05-03 08:57 310K
20260503T06Z_MSC_RDPS_GeopotentialHeight_IsbL-0100_RLatLon0.09_PT043H.grib2 2026-05-03 08:57 288K
20260503T06Z_MSC_RDPS_GeopotentialHeight_IsbL-0150_RLatLon0.09_PT043H.grib2 2026-05-03 08:57 231K
20260503T06Z_MSC_RDPS_GeopotentialHeight_IsbL-0175_RLatLon0.09_PT043H.grib2 2026-05-03 08:57 235K
20260503T06Z_MSC_RDPS_GeopotentialHeight_IsbL-0200_RLatLon0.09_PT043H.grib2 2026-05-03 08:57 237K
20260503T06Z_MSC_RDPS_GeopotentialHeight_IsbL-0225_RLatLon0.09_PT043H.grib2 2026-05-03 08:57 268K
20260503T06Z_MSC_RDPS_GeopotentialHeight_IsbL-0250_RLatLon0.09_PT043H.grib2 2026-05-03 08:57 269K
20260503T06Z_MSC_RDPS_GeopotentialHeight_IsbL-0275_RLatLon0.09_PT043H.grib2 2026-05-03 08:57 237K
20260503T06Z_MSC_RDPS_GeopotentialHeight_IsbL-0300_RLatLon0.09_PT043H.grib2 2026-05-03 08:57 237K
20260503T06Z_MSC_RDPS_GeopotentialHeight_IsbL-0350_RLatLon0.09_PT043H.grib2 2026-05-03 08:57 233K
20260503T06Z_MSC_RDPS_GeopotentialHeight_IsbL-0400_RLatLon0.09_PT043H.grib2 2026-05-03 08:57 229K
20260503T06Z_MSC_RDPS_GeopotentialHeight_IsbL-0450_RLatLon0.09_PT043H.grib2 2026-05-03 08:57 299K
20260503T06Z_MSC_RDPS_GeopotentialHeight_IsbL-0500_RLatLon0.09_PT043H.grib2 2026-05-03 08:57 295K
20260503T06Z_MSC_RDPS_GeopotentialHeight_IsbL-0550_RLatLon0.09_PT043H.grib2 2026-05-03 08:57 292K
20260503T06Z_MSC_RDPS_GeopotentialHeight_IsbL-0600_RLatLon0.09_PT043H.grib2 2026-05-03 08:57 261K
20260503T06Z_MSC_RDPS_GeopotentialHeight_IsbL-0650_RLatLon0.09_PT043H.grib2 2026-05-03 08:57 259K
20260503T06Z_MSC_RDPS_GeopotentialHeight_IsbL-0700_RLatLon0.09_PT043H.grib2 2026-05-03 08:57 257K
20260503T06Z_MSC_RDPS_GeopotentialHeight_IsbL-0750_RLatLon0.09_PT043H.grib2 2026-05-03 08:57 342K
20260503T06Z_MSC_RDPS_GeopotentialHeight_IsbL-0800_RLatLon0.09_PT043H.grib2 2026-05-03 08:57 348K
20260503T06Z_MSC_RDPS_GeopotentialHeight_IsbL-0850_RLatLon0.09_PT043H.grib2 2026-05-03 08:57 358K
20260503T06Z_MSC_RDPS_GeopotentialHeight_IsbL-0875_RLatLon0.09_PT043H.grib2 2026-05-03 08:57 359K
20260503T06Z_MSC_RDPS_GeopotentialHeight_IsbL-0900_RLatLon0.09_PT043H.grib2 2026-05-03 08:57 277K
20260503T06Z_MSC_RDPS_GeopotentialHeight_IsbL-0925_RLatLon0.09_PT043H.grib2 2026-05-03 08:57 279K
20260503T06Z_MSC_RDPS_GeopotentialHeight_IsbL-0950_RLatLon0.09_PT043H.grib2 2026-05-03 08:57 282K
20260503T06Z_MSC_RDPS_GeopotentialHeight_IsbL-0970_RLatLon0.09_PT043H.grib2 2026-05-03 08:57 286K
20260503T06Z_MSC_RDPS_GeopotentialHeight_IsbL-0985_RLatLon0.09_PT043H.grib2 2026-05-03 08:57 292K
20260503T06Z_MSC_RDPS_GeopotentialHeight_IsbL-1000_RLatLon0.09_PT043H.grib2 2026-05-03 08:57 299K
20260503T06Z_MSC_RDPS_GeopotentialHeight_IsbL-1015_RLatLon0.09_PT043H.grib2 2026-05-03 08:57 311K
20260503T06Z_MSC_RDPS_Humidex_Sfc_RLatLon0.09_PT043H.grib2 2026-05-03 08:57 2.2M
20260503T06Z_MSC_RDPS_IcePellets-Accum1h_Sfc_RLatLon0.09_PT043H.grib2 2026-05-03 08:57 8.1K
20260503T06Z_MSC_RDPS_IcePellets-Accum_Sfc_RLatLon0.09_PT043H.grib2 2026-05-03 08:57 19K
20260503T06Z_MSC_RDPS_KIndex_Sfc_RLatLon0.09_PT043H.grib2 2026-05-03 08:57 2.5M
20260503T06Z_MSC_RDPS_LatentHeatNetFlux_Sfc_RLatLon0.09_PT043H.grib2 2026-05-03 08:57 353K
20260503T06Z_MSC_RDPS_LiftedIndex-MU-VT_IsbL-0500_RLatLon0.09_PT043H.grib2 2026-05-03 08:57 2.4M
20260503T06Z_MSC_RDPS_NetLongwaveRadiationFlux-Accum_Sfc_RLatLon0.09_PT043H.grib2 2026-05-03 08:57 536K
20260503T06Z_MSC_RDPS_NetShortwaveRadiationFlux-Accum_Sfc_RLatLon0.09_PT043H.grib2 2026-05-03 08:57 560K
20260503T06Z_MSC_RDPS_PlanetaryBoundaryLayerHeight_Sfc_RLatLon0.09_PT043H.grib2 2026-05-03 08:57 1.0M
20260503T06Z_MSC_RDPS_Precip-Accum1h_Sfc_RLatLon0.09_PT043H.grib2 2026-05-03 08:57 1.2M
20260503T06Z_MSC_RDPS_Precip-Accum_Sfc_RLatLon0.09_PT043H.grib2 2026-05-03 08:57 2.1M
20260503T06Z_MSC_RDPS_PrecipRate_Sfc_RLatLon0.09_PT043H.grib2 2026-05-03 08:57 171K
20260503T06Z_MSC_RDPS_PrecipType-Instant_Sfc_RLatLon0.09_PT043H.grib2 2026-05-03 08:57 562K
20260503T06Z_MSC_RDPS_Pressure-Trend3h_Sfc_RLatLon0.09_PT043H.grib2 2026-05-03 08:57 1.2M
20260503T06Z_MSC_RDPS_Pressure_MSL_RLatLon0.09_PT043H.grib2 2026-05-03 08:57 327K
20260503T06Z_MSC_RDPS_Pressure_PVU-1.5_RLatLon0.09_PT043H.grib2 2026-05-03 08:57 2.5M
20260503T06Z_MSC_RDPS_Pressure_PVU-1_RLatLon0.09_PT043H.grib2 2026-05-03 08:57 2.4M
20260503T06Z_MSC_RDPS_Pressure_PVU-2_RLatLon0.09_PT043H.grib2 2026-05-03 08:57 2.4M
20260503T06Z_MSC_RDPS_Pressure_Sfc_RLatLon0.09_PT043H.grib2 2026-05-03 08:57 498K
20260503T06Z_MSC_RDPS_RadiativeTemp_Sfc_RLatLon0.09_PT043H.grib2 2026-05-03 08:57 308K
20260503T06Z_MSC_RDPS_Rain-Accum1h_Sfc_RLatLon0.09_PT043H.grib2 2026-05-03 08:57 599K
20260503T06Z_MSC_RDPS_Rain-Accum_Sfc_RLatLon0.09_PT043H.grib2 2026-05-03 08:57 1.7M
20260503T06Z_MSC_RDPS_RelativeHumidity_AGL-2m_RLatLon0.09_PT043H.grib2 2026-05-03 08:57 1.0M
20260503T06Z_MSC_RDPS_RelativeHumidity_IsbL-0010_RLatLon0.09_PT043H.grib2 2026-05-03 08:57 608K
20260503T06Z_MSC_RDPS_RelativeHumidity_IsbL-0020_RLatLon0.09_PT043H.grib2 2026-05-03 08:57 663K
20260503T06Z_MSC_RDPS_RelativeHumidity_IsbL-0030_RLatLon0.09_PT043H.grib2 2026-05-03 08:57 602K
20260503T06Z_MSC_RDPS_RelativeHumidity_IsbL-0050_RLatLon0.09_PT043H.grib2 2026-05-03 08:57 361K
20260503T06Z_MSC_RDPS_RelativeHumidity_IsbL-0100_RLatLon0.09_PT043H.grib2 2026-05-03 08:57 287K
20260503T06Z_MSC_RDPS_RelativeHumidity_IsbL-0150_RLatLon0.09_PT043H.grib2 2026-05-03 08:57 425K
20260503T06Z_MSC_RDPS_RelativeHumidity_IsbL-0175_RLatLon0.09_PT043H.grib2 2026-05-03 08:57 489K
20260503T06Z_MSC_RDPS_RelativeHumidity_IsbL-0200_RLatLon0.09_PT043H.grib2 2026-05-03 08:57 564K
20260503T06Z_MSC_RDPS_RelativeHumidity_IsbL-0225_RLatLon0.09_PT043H.grib2 2026-05-03 08:57 633K
20260503T06Z_MSC_RDPS_RelativeHumidity_IsbL-0250_RLatLon0.09_PT043H.grib2 2026-05-03 08:57 697K
20260503T06Z_MSC_RDPS_RelativeHumidity_IsbL-0275_RLatLon0.09_PT043H.grib2 2026-05-03 08:57 713K
20260503T06Z_MSC_RDPS_RelativeHumidity_IsbL-0300_RLatLon0.09_PT043H.grib2 2026-05-03 08:57 748K
20260503T06Z_MSC_RDPS_RelativeHumidity_IsbL-0350_RLatLon0.09_PT043H.grib2 2026-05-03 08:57 771K
20260503T06Z_MSC_RDPS_RelativeHumidity_IsbL-0400_RLatLon0.09_PT043H.grib2 2026-05-03 08:57 789K
20260503T06Z_MSC_RDPS_RelativeHumidity_IsbL-0450_RLatLon0.09_PT043H.grib2 2026-05-03 08:57 796K
20260503T06Z_MSC_RDPS_RelativeHumidity_IsbL-0500_RLatLon0.09_PT043H.grib2 2026-05-03 08:57 801K
20260503T06Z_MSC_RDPS_RelativeHumidity_IsbL-0550_RLatLon0.09_PT043H.grib2 2026-05-03 08:57 827K
20260503T06Z_MSC_RDPS_RelativeHumidity_IsbL-0600_RLatLon0.09_PT043H.grib2 2026-05-03 08:57 845K
20260503T06Z_MSC_RDPS_RelativeHumidity_IsbL-0650_RLatLon0.09_PT043H.grib2 2026-05-03 08:57 852K
20260503T06Z_MSC_RDPS_RelativeHumidity_IsbL-0700_RLatLon0.09_PT043H.grib2 2026-05-03 08:57 889K
20260503T06Z_MSC_RDPS_RelativeHumidity_IsbL-0750_RLatLon0.09_PT043H.grib2 2026-05-03 08:57 924K
20260503T06Z_MSC_RDPS_RelativeHumidity_IsbL-0800_RLatLon0.09_PT043H.grib2 2026-05-03 08:57 1.0M
20260503T06Z_MSC_RDPS_RelativeHumidity_IsbL-0850_RLatLon0.09_PT043H.grib2 2026-05-03 08:57 1.0M
20260503T06Z_MSC_RDPS_RelativeHumidity_IsbL-0875_RLatLon0.09_PT043H.grib2 2026-05-03 08:57 1.1M
20260503T06Z_MSC_RDPS_RelativeHumidity_IsbL-0900_RLatLon0.09_PT043H.grib2 2026-05-03 08:57 1.1M
20260503T06Z_MSC_RDPS_RelativeHumidity_IsbL-0925_RLatLon0.09_PT043H.grib2 2026-05-03 08:57 1.1M
20260503T06Z_MSC_RDPS_RelativeHumidity_IsbL-0950_RLatLon0.09_PT043H.grib2 2026-05-03 08:57 1.1M
20260503T06Z_MSC_RDPS_RelativeHumidity_IsbL-0970_RLatLon0.09_PT043H.grib2 2026-05-03 08:57 1.0M
20260503T06Z_MSC_RDPS_RelativeHumidity_IsbL-0985_RLatLon0.09_PT043H.grib2 2026-05-03 08:57 1.0M
20260503T06Z_MSC_RDPS_RelativeHumidity_IsbL-1000_RLatLon0.09_PT043H.grib2 2026-05-03 08:57 1.0M
20260503T06Z_MSC_RDPS_RelativeHumidity_IsbL-1015_RLatLon0.09_PT043H.grib2 2026-05-03 08:57 1.0M
20260503T06Z_MSC_RDPS_Runoff-Accum_Sfc_RLatLon0.09_PT043H.grib2 2026-05-03 08:57 69K
20260503T06Z_MSC_RDPS_SWEATIndex_Sfc_RLatLon0.09_PT043H.grib2 2026-05-03 08:57 2.4M
20260503T06Z_MSC_RDPS_SeeingIndex_EAtm_RLatLon0.09_PT043H.grib2 2026-05-03 08:57 1.0M
20260503T06Z_MSC_RDPS_SensibleHeatNetFlux_Sfc_RLatLon0.09_PT043H.grib2 2026-05-03 08:57 311K
20260503T06Z_MSC_RDPS_ShowalterIndex_IsbL-0500_RLatLon0.09_PT043H.grib2 2026-05-03 08:57 2.6M
20260503T06Z_MSC_RDPS_SkyTransparencyIndex_EAtm_RLatLon0.09_PT043H.grib2 2026-05-03 08:57 719K
20260503T06Z_MSC_RDPS_Snow-Accum1h_Sfc_RLatLon0.09_PT043H.grib2 2026-05-03 08:57 455K
20260503T06Z_MSC_RDPS_Snow-Accum_Sfc_RLatLon0.09_PT043H.grib2 2026-05-03 08:57 775K
20260503T06Z_MSC_RDPS_SnowDensity_Sfc_RLatLon0.09_PT043H.grib2 2026-05-03 08:57 172K
20260503T06Z_MSC_RDPS_SnowDepth_Sfc_RLatLon0.09_PT043H.grib2 2026-05-03 08:57 652K
20260503T06Z_MSC_RDPS_SoilTemp_DBS-0to10cm_RLatLon0.09_PT043H.grib2 2026-05-03 08:57 241K
20260503T06Z_MSC_RDPS_SoilTemp_Sfc_RLatLon0.09_PT043H.grib2 2026-05-03 08:57 269K
20260503T06Z_MSC_RDPS_SoilVolumetricIceContent_Sfc_RLatLon0.09_PT043H.grib2 2026-05-03 08:57 154K
20260503T06Z_MSC_RDPS_SoilVolumetricWaterContent_DBS-0to10cm_RLatLon0.09_PT043H.grib2 2026-05-03 08:57 275K
20260503T06Z_MSC_RDPS_SoilVolumetricWaterContent_DBS-0to1cm_RLatLon0.09_PT043H.grib2 2026-05-03 08:57 339K
20260503T06Z_MSC_RDPS_SpecificHumidity_AGL-120m_RLatLon0.09_PT043H.grib2 2026-05-03 08:57 486K
20260503T06Z_MSC_RDPS_SpecificHumidity_AGL-2m_RLatLon0.09_PT043H.grib2 2026-05-03 08:57 659K
20260503T06Z_MSC_RDPS_SpecificHumidity_AGL-40m_RLatLon0.09_PT043H.grib2 2026-05-03 08:57 492K
20260503T06Z_MSC_RDPS_SpecificHumidity_AGL-80m_RLatLon0.09_PT043H.grib2 2026-05-03 08:57 487K
20260503T06Z_MSC_RDPS_SpecificHumidity_IsbL-0001_RLatLon0.09_PT043H.grib2 2026-05-03 08:57 401K
20260503T06Z_MSC_RDPS_SpecificHumidity_IsbL-0005_RLatLon0.09_PT043H.grib2 2026-05-03 08:57 370K
20260503T06Z_MSC_RDPS_SpecificHumidity_IsbL-0010_RLatLon0.09_PT043H.grib2 2026-05-03 08:57 400K
20260503T06Z_MSC_RDPS_SpecificHumidity_IsbL-0020_RLatLon0.09_PT043H.grib2 2026-05-03 08:57 382K
20260503T06Z_MSC_RDPS_SpecificHumidity_IsbL-0030_RLatLon0.09_PT043H.grib2 2026-05-03 08:57 376K
20260503T06Z_MSC_RDPS_SpecificHumidity_IsbL-0050_RLatLon0.09_PT043H.grib2 2026-05-03 08:57 486K
20260503T06Z_MSC_RDPS_SpecificHumidity_IsbL-0100_RLatLon0.09_PT043H.grib2 2026-05-03 08:57 428K
20260503T06Z_MSC_RDPS_SpecificHumidity_IsbL-0150_RLatLon0.09_PT043H.grib2 2026-05-03 08:57 461K
20260503T06Z_MSC_RDPS_SpecificHumidity_IsbL-0175_RLatLon0.09_PT043H.grib2 2026-05-03 08:57 451K
20260503T06Z_MSC_RDPS_SpecificHumidity_IsbL-0200_RLatLon0.09_PT043H.grib2 2026-05-03 08:57 468K
20260503T06Z_MSC_RDPS_SpecificHumidity_IsbL-0225_RLatLon0.09_PT043H.grib2 2026-05-03 08:57 471K
20260503T06Z_MSC_RDPS_SpecificHumidity_IsbL-0250_RLatLon0.09_PT043H.grib2 2026-05-03 08:57 575K
20260503T06Z_MSC_RDPS_SpecificHumidity_IsbL-0275_RLatLon0.09_PT043H.grib2 2026-05-03 08:57 486K
20260503T06Z_MSC_RDPS_SpecificHumidity_IsbL-0300_RLatLon0.09_PT043H.grib2 2026-05-03 08:57 554K
20260503T06Z_MSC_RDPS_SpecificHumidity_IsbL-0350_RLatLon0.09_PT043H.grib2 2026-05-03 08:57 549K
20260503T06Z_MSC_RDPS_SpecificHumidity_IsbL-0400_RLatLon0.09_PT043H.grib2 2026-05-03 08:57 531K
20260503T06Z_MSC_RDPS_SpecificHumidity_IsbL-0450_RLatLon0.09_PT043H.grib2 2026-05-03 08:57 582K
20260503T06Z_MSC_RDPS_SpecificHumidity_IsbL-0500_RLatLon0.09_PT043H.grib2 2026-05-03 08:57 516K
20260503T06Z_MSC_RDPS_SpecificHumidity_IsbL-0550_RLatLon0.09_PT043H.grib2 2026-05-03 08:57 586K
20260503T06Z_MSC_RDPS_SpecificHumidity_IsbL-0600_RLatLon0.09_PT043H.grib2 2026-05-03 08:57 636K
20260503T06Z_MSC_RDPS_SpecificHumidity_IsbL-0650_RLatLon0.09_PT043H.grib2 2026-05-03 08:57 556K
20260503T06Z_MSC_RDPS_SpecificHumidity_IsbL-0700_RLatLon0.09_PT043H.grib2 2026-05-03 08:57 600K
20260503T06Z_MSC_RDPS_SpecificHumidity_IsbL-0750_RLatLon0.09_PT043H.grib2 2026-05-03 08:57 653K
20260503T06Z_MSC_RDPS_SpecificHumidity_IsbL-0800_RLatLon0.09_PT043H.grib2 2026-05-03 08:57 734K
20260503T06Z_MSC_RDPS_SpecificHumidity_IsbL-0850_RLatLon0.09_PT043H.grib2 2026-05-03 08:57 810K
20260503T06Z_MSC_RDPS_SpecificHumidity_IsbL-0875_RLatLon0.09_PT043H.grib2 2026-05-03 08:57 836K
20260503T06Z_MSC_RDPS_SpecificHumidity_IsbL-0900_RLatLon0.09_PT043H.grib2 2026-05-03 08:57 707K
20260503T06Z_MSC_RDPS_SpecificHumidity_IsbL-0925_RLatLon0.09_PT043H.grib2 2026-05-03 08:57 709K
20260503T06Z_MSC_RDPS_SpecificHumidity_IsbL-0950_RLatLon0.09_PT043H.grib2 2026-05-03 08:57 707K
20260503T06Z_MSC_RDPS_SpecificHumidity_IsbL-0970_RLatLon0.09_PT043H.grib2 2026-05-03 08:57 698K
20260503T06Z_MSC_RDPS_SpecificHumidity_IsbL-0985_RLatLon0.09_PT043H.grib2 2026-05-03 08:57 689K
20260503T06Z_MSC_RDPS_SpecificHumidity_IsbL-1000_RLatLon0.09_PT043H.grib2 2026-05-03 08:57 682K
20260503T06Z_MSC_RDPS_SpecificHumidity_IsbL-1015_RLatLon0.09_PT043H.grib2 2026-05-03 08:57 674K
20260503T06Z_MSC_RDPS_SpecificHumidity_Sfc_RLatLon0.09_PT043H.grib2 2026-05-03 08:57 329K
20260503T06Z_MSC_RDPS_StormRelativeHelicity_EtaL-10000_RLatLon0.09_PT043H.grib2 2026-05-03 08:57 1.1M
20260503T06Z_MSC_RDPS_StormSeverityIndex_EtaL-10000_RLatLon0.09_PT043H.grib2 2026-05-03 08:57 1.2M
20260503T06Z_MSC_RDPS_Thickness_IsbL-0850to0700_RLatLon0.09_PT043H.grib2 2026-05-03 08:57 177K
20260503T06Z_MSC_RDPS_Thickness_IsbL-1000to0500_RLatLon0.09_PT043H.grib2 2026-05-03 08:57 199K
20260503T06Z_MSC_RDPS_Thickness_IsbL-1000to0850_RLatLon0.09_PT043H.grib2 2026-05-03 08:57 184K
20260503T06Z_MSC_RDPS_TotalCloudCover_Sfc_RLatLon0.09_PT043H.grib2 2026-05-03 08:57 664K
20260503T06Z_MSC_RDPS_TotalTotalsIndex_Sfc_RLatLon0.09_PT043H.grib2 2026-05-03 08:57 2.4M
20260503T06Z_MSC_RDPS_UVIndex-ClearSky_Sfc_RLatLon0.09_PT043H.grib2 2026-05-03 08:57 161K
20260503T06Z_MSC_RDPS_UVIndex_Sfc_RLatLon0.09_PT043H.grib2 2026-05-03 08:57 328K
20260503T06Z_MSC_RDPS_UpwardLongwaveRadiationFlux_NTAtm_RLatLon0.09_PT043H.grib2 2026-05-03 08:57 497K
20260503T06Z_MSC_RDPS_UpwardShortwaveRadiationFlux_NTAtm_RLatLon0.09_PT043H.grib2 2026-05-03 08:57 297K
20260503T06Z_MSC_RDPS_VerticalVelocity_IsbL-0250_RLatLon0.09_PT043H.grib2 2026-05-03 08:57 561K
20260503T06Z_MSC_RDPS_VerticalVelocity_IsbL-0500_RLatLon0.09_PT043H.grib2 2026-05-03 08:57 553K
20260503T06Z_MSC_RDPS_VerticalVelocity_IsbL-0700_RLatLon0.09_PT043H.grib2 2026-05-03 08:57 604K
20260503T06Z_MSC_RDPS_VerticalVelocity_IsbL-0850_RLatLon0.09_PT043H.grib2 2026-05-03 08:57 695K
20260503T06Z_MSC_RDPS_VerticalWindShear_EtaL-6500_RLatLon0.09_PT043H.grib2 2026-05-03 08:57 1.2M
20260503T06Z_MSC_RDPS_WindChill_Sfc_RLatLon0.09_PT043H.grib2 2026-05-03 08:57 1.1M
20260503T06Z_MSC_RDPS_WindDir_AGL-10m_RLatLon0.09_PT043H.grib2 2026-05-03 08:57 943K
20260503T06Z_MSC_RDPS_WindDir_AGL-120m_RLatLon0.09_PT043H.grib2 2026-05-03 08:57 589K
20260503T06Z_MSC_RDPS_WindDir_AGL-40m_RLatLon0.09_PT043H.grib2 2026-05-03 08:57 613K
20260503T06Z_MSC_RDPS_WindDir_AGL-80m_RLatLon0.09_PT043H.grib2 2026-05-03 08:57 599K
20260503T06Z_MSC_RDPS_WindDir_IsbL-0001_RLatLon0.09_PT043H.grib2 2026-05-03 08:57 292K
20260503T06Z_MSC_RDPS_WindDir_IsbL-0005_RLatLon0.09_PT043H.grib2 2026-05-03 08:57 383K
20260503T06Z_MSC_RDPS_WindDir_IsbL-0010_RLatLon0.09_PT043H.grib2 2026-05-03 08:57 395K
20260503T06Z_MSC_RDPS_WindDir_IsbL-0020_RLatLon0.09_PT043H.grib2 2026-05-03 08:57 421K
20260503T06Z_MSC_RDPS_WindDir_IsbL-0030_RLatLon0.09_PT043H.grib2 2026-05-03 08:57 420K
20260503T06Z_MSC_RDPS_WindDir_IsbL-0050_RLatLon0.09_PT043H.grib2 2026-05-03 08:57 419K
20260503T06Z_MSC_RDPS_WindDir_IsbL-0100_RLatLon0.09_PT043H.grib2 2026-05-03 08:57 412K
20260503T06Z_MSC_RDPS_WindDir_IsbL-0150_RLatLon0.09_PT043H.grib2 2026-05-03 08:57 411K
20260503T06Z_MSC_RDPS_WindDir_IsbL-0175_RLatLon0.09_PT043H.grib2 2026-05-03 08:57 437K
20260503T06Z_MSC_RDPS_WindDir_IsbL-0200_RLatLon0.09_PT043H.grib2 2026-05-03 08:57 448K
20260503T06Z_MSC_RDPS_WindDir_IsbL-0225_RLatLon0.09_PT043H.grib2 2026-05-03 08:57 451K
20260503T06Z_MSC_RDPS_WindDir_IsbL-0250_RLatLon0.09_PT043H.grib2 2026-05-03 08:57 453K
20260503T06Z_MSC_RDPS_WindDir_IsbL-0275_RLatLon0.09_PT043H.grib2 2026-05-03 08:57 477K
20260503T06Z_MSC_RDPS_WindDir_IsbL-0300_RLatLon0.09_PT043H.grib2 2026-05-03 08:57 473K
20260503T06Z_MSC_RDPS_WindDir_IsbL-0350_RLatLon0.09_PT043H.grib2 2026-05-03 08:57 494K
20260503T06Z_MSC_RDPS_WindDir_IsbL-0400_RLatLon0.09_PT043H.grib2 2026-05-03 08:57 516K
20260503T06Z_MSC_RDPS_WindDir_IsbL-0450_RLatLon0.09_PT043H.grib2 2026-05-03 08:57 534K
20260503T06Z_MSC_RDPS_WindDir_IsbL-0500_RLatLon0.09_PT043H.grib2 2026-05-03 08:57 544K
20260503T06Z_MSC_RDPS_WindDir_IsbL-0550_RLatLon0.09_PT043H.grib2 2026-05-03 08:57 554K
20260503T06Z_MSC_RDPS_WindDir_IsbL-0600_RLatLon0.09_PT043H.grib2 2026-05-03 08:57 575K
20260503T06Z_MSC_RDPS_WindDir_IsbL-0650_RLatLon0.09_PT043H.grib2 2026-05-03 08:57 614K
20260503T06Z_MSC_RDPS_WindDir_IsbL-0700_RLatLon0.09_PT043H.grib2 2026-05-03 08:57 652K
20260503T06Z_MSC_RDPS_WindDir_IsbL-0750_RLatLon0.09_PT043H.grib2 2026-05-03 08:57 704K
20260503T06Z_MSC_RDPS_WindDir_IsbL-0800_RLatLon0.09_PT043H.grib2 2026-05-03 08:57 771K
20260503T06Z_MSC_RDPS_WindDir_IsbL-0850_RLatLon0.09_PT043H.grib2 2026-05-03 08:57 857K
20260503T06Z_MSC_RDPS_WindDir_IsbL-0875_RLatLon0.09_PT043H.grib2 2026-05-03 08:57 885K
20260503T06Z_MSC_RDPS_WindDir_IsbL-0900_RLatLon0.09_PT043H.grib2 2026-05-03 08:57 898K
20260503T06Z_MSC_RDPS_WindDir_IsbL-0925_RLatLon0.09_PT043H.grib2 2026-05-03 08:57 900K
20260503T06Z_MSC_RDPS_WindDir_IsbL-0950_RLatLon0.09_PT043H.grib2 2026-05-03 08:57 895K
20260503T06Z_MSC_RDPS_WindDir_IsbL-0970_RLatLon0.09_PT043H.grib2 2026-05-03 08:57 899K
20260503T06Z_MSC_RDPS_WindDir_IsbL-0985_RLatLon0.09_PT043H.grib2 2026-05-03 08:57 907K
20260503T06Z_MSC_RDPS_WindDir_IsbL-1000_RLatLon0.09_PT043H.grib2 2026-05-03 08:57 920K
20260503T06Z_MSC_RDPS_WindDir_IsbL-1015_RLatLon0.09_PT043H.grib2 2026-05-03 08:57 934K
20260503T06Z_MSC_RDPS_WindGust-Max_AGL-10m_RLatLon0.09_PT043H.grib2 2026-05-03 08:57 959K
20260503T06Z_MSC_RDPS_WindGust-Min_AGL-10m_RLatLon0.09_PT043H.grib2 2026-05-03 08:57 1.0M
20260503T06Z_MSC_RDPS_WindGust_AGL-10m_RLatLon0.09_PT043H.grib2 2026-05-03 08:57 1.0M
20260503T06Z_MSC_RDPS_WindSpeed_AGL-10m_RLatLon0.09_PT043H.grib2 2026-05-03 08:57 842K
20260503T06Z_MSC_RDPS_WindSpeed_AGL-120m_RLatLon0.09_PT043H.grib2 2026-05-03 08:57 536K
20260503T06Z_MSC_RDPS_WindSpeed_AGL-40m_RLatLon0.09_PT043H.grib2 2026-05-03 08:57 543K
20260503T06Z_MSC_RDPS_WindSpeed_AGL-80m_RLatLon0.09_PT043H.grib2 2026-05-03 08:57 538K
20260503T06Z_MSC_RDPS_WindSpeed_IsbL-0001_RLatLon0.09_PT043H.grib2 2026-05-03 08:57 337K
20260503T06Z_MSC_RDPS_WindSpeed_IsbL-0005_RLatLon0.09_PT043H.grib2 2026-05-03 08:57 352K
20260503T06Z_MSC_RDPS_WindSpeed_IsbL-0010_RLatLon0.09_PT043H.grib2 2026-05-03 08:57 366K
20260503T06Z_MSC_RDPS_WindSpeed_IsbL-0020_RLatLon0.09_PT043H.grib2 2026-05-03 08:57 422K
20260503T06Z_MSC_RDPS_WindSpeed_IsbL-0030_RLatLon0.09_PT043H.grib2 2026-05-03 08:57 323K
20260503T06Z_MSC_RDPS_WindSpeed_IsbL-0050_RLatLon0.09_PT043H.grib2 2026-05-03 08:57 356K
20260503T06Z_MSC_RDPS_WindSpeed_IsbL-0100_RLatLon0.09_PT043H.grib2 2026-05-03 08:57 485K
20260503T06Z_MSC_RDPS_WindSpeed_IsbL-0150_RLatLon0.09_PT043H.grib2 2026-05-03 08:57 387K
20260503T06Z_MSC_RDPS_WindSpeed_IsbL-0175_RLatLon0.09_PT043H.grib2 2026-05-03 08:57 413K
20260503T06Z_MSC_RDPS_WindSpeed_IsbL-0200_RLatLon0.09_PT043H.grib2 2026-05-03 08:57 447K
20260503T06Z_MSC_RDPS_WindSpeed_IsbL-0225_RLatLon0.09_PT043H.grib2 2026-05-03 08:57 453K
20260503T06Z_MSC_RDPS_WindSpeed_IsbL-0250_RLatLon0.09_PT043H.grib2 2026-05-03 08:57 456K
20260503T06Z_MSC_RDPS_WindSpeed_IsbL-0275_RLatLon0.09_PT043H.grib2 2026-05-03 08:57 471K
20260503T06Z_MSC_RDPS_WindSpeed_IsbL-0300_RLatLon0.09_PT043H.grib2 2026-05-03 08:57 469K
20260503T06Z_MSC_RDPS_WindSpeed_IsbL-0350_RLatLon0.09_PT043H.grib2 2026-05-03 08:57 479K
20260503T06Z_MSC_RDPS_WindSpeed_IsbL-0400_RLatLon0.09_PT043H.grib2 2026-05-03 08:57 481K
20260503T06Z_MSC_RDPS_WindSpeed_IsbL-0450_RLatLon0.09_PT043H.grib2 2026-05-03 08:57 467K
20260503T06Z_MSC_RDPS_WindSpeed_IsbL-0500_RLatLon0.09_PT043H.grib2 2026-05-03 08:57 470K
20260503T06Z_MSC_RDPS_WindSpeed_IsbL-0550_RLatLon0.09_PT043H.grib2 2026-05-03 08:57 470K
20260503T06Z_MSC_RDPS_WindSpeed_IsbL-0600_RLatLon0.09_PT043H.grib2 2026-05-03 08:57 597K
20260503T06Z_MSC_RDPS_WindSpeed_IsbL-0650_RLatLon0.09_PT043H.grib2 2026-05-03 08:57 617K
20260503T06Z_MSC_RDPS_WindSpeed_IsbL-0700_RLatLon0.09_PT043H.grib2 2026-05-03 08:57 635K
20260503T06Z_MSC_RDPS_WindSpeed_IsbL-0750_RLatLon0.09_PT043H.grib2 2026-05-03 08:57 660K
20260503T06Z_MSC_RDPS_WindSpeed_IsbL-0800_RLatLon0.09_PT043H.grib2 2026-05-03 08:57 708K
20260503T06Z_MSC_RDPS_WindSpeed_IsbL-0850_RLatLon0.09_PT043H.grib2 2026-05-03 08:57 773K
20260503T06Z_MSC_RDPS_WindSpeed_IsbL-0875_RLatLon0.09_PT043H.grib2 2026-05-03 08:57 798K
20260503T06Z_MSC_RDPS_WindSpeed_IsbL-0900_RLatLon0.09_PT043H.grib2 2026-05-03 08:57 860K
20260503T06Z_MSC_RDPS_WindSpeed_IsbL-0925_RLatLon0.09_PT043H.grib2 2026-05-03 08:57 872K
20260503T06Z_MSC_RDPS_WindSpeed_IsbL-0950_RLatLon0.09_PT043H.grib2 2026-05-03 08:57 873K
20260503T06Z_MSC_RDPS_WindSpeed_IsbL-0970_RLatLon0.09_PT043H.grib2 2026-05-03 08:57 867K
20260503T06Z_MSC_RDPS_WindSpeed_IsbL-0985_RLatLon0.09_PT043H.grib2 2026-05-03 08:57 860K
20260503T06Z_MSC_RDPS_WindSpeed_IsbL-1000_RLatLon0.09_PT043H.grib2 2026-05-03 08:57 852K
20260503T06Z_MSC_RDPS_WindSpeed_IsbL-1015_RLatLon0.09_PT043H.grib2 2026-05-03 08:57 843K
20260503T06Z_MSC_RDPS_WindU_AGL-10m_RLatLon0.09_PT043H.grib2 2026-05-03 08:57 431K
20260503T06Z_MSC_RDPS_WindU_AGL-120m_RLatLon0.09_PT043H.grib2 2026-05-03 08:57 532K
20260503T06Z_MSC_RDPS_WindU_AGL-40m_RLatLon0.09_PT043H.grib2 2026-05-03 08:57 535K
20260503T06Z_MSC_RDPS_WindU_AGL-80m_RLatLon0.09_PT043H.grib2 2026-05-03 08:57 533K
20260503T06Z_MSC_RDPS_WindU_IsbL-0001_RLatLon0.09_PT043H.grib2 2026-05-03 08:57 296K
20260503T06Z_MSC_RDPS_WindU_IsbL-0005_RLatLon0.09_PT043H.grib2 2026-05-03 08:57 288K
20260503T06Z_MSC_RDPS_WindU_IsbL-0010_RLatLon0.09_PT043H.grib2 2026-05-03 08:57 298K
20260503T06Z_MSC_RDPS_WindU_IsbL-0020_RLatLon0.09_PT043H.grib2 2026-05-03 08:57 315K
20260503T06Z_MSC_RDPS_WindU_IsbL-0030_RLatLon0.09_PT043H.grib2 2026-05-03 08:57 354K
20260503T06Z_MSC_RDPS_WindU_IsbL-0050_RLatLon0.09_PT043H.grib2 2026-05-03 08:57 384K
20260503T06Z_MSC_RDPS_WindU_IsbL-0100_RLatLon0.09_PT043H.grib2 2026-05-03 08:57 341K
20260503T06Z_MSC_RDPS_WindU_IsbL-0150_RLatLon0.09_PT043H.grib2 2026-05-03 08:57 403K
20260503T06Z_MSC_RDPS_WindU_IsbL-0175_RLatLon0.09_PT043H.grib2 2026-05-03 08:57 427K
20260503T06Z_MSC_RDPS_WindU_IsbL-0200_RLatLon0.09_PT043H.grib2 2026-05-03 08:57 341K
20260503T06Z_MSC_RDPS_WindU_IsbL-0225_RLatLon0.09_PT043H.grib2 2026-05-03 08:57 346K
20260503T06Z_MSC_RDPS_WindU_IsbL-0250_RLatLon0.09_PT043H.grib2 2026-05-03 08:57 347K
20260503T06Z_MSC_RDPS_WindU_IsbL-0275_RLatLon0.09_PT043H.grib2 2026-05-03 08:57 359K
20260503T06Z_MSC_RDPS_WindU_IsbL-0300_RLatLon0.09_PT043H.grib2 2026-05-03 08:57 356K
20260503T06Z_MSC_RDPS_WindU_IsbL-0350_RLatLon0.09_PT043H.grib2 2026-05-03 08:57 364K
20260503T06Z_MSC_RDPS_WindU_IsbL-0400_RLatLon0.09_PT043H.grib2 2026-05-03 08:57 469K
20260503T06Z_MSC_RDPS_WindU_IsbL-0450_RLatLon0.09_PT043H.grib2 2026-05-03 08:57 473K
20260503T06Z_MSC_RDPS_WindU_IsbL-0500_RLatLon0.09_PT043H.grib2 2026-05-03 08:57 476K
20260503T06Z_MSC_RDPS_WindU_IsbL-0550_RLatLon0.09_PT043H.grib2 2026-05-03 08:57 477K
20260503T06Z_MSC_RDPS_WindU_IsbL-0600_RLatLon0.09_PT043H.grib2 2026-05-03 08:57 485K
20260503T06Z_MSC_RDPS_WindU_IsbL-0650_RLatLon0.09_PT043H.grib2 2026-05-03 08:57 503K
20260503T06Z_MSC_RDPS_WindU_IsbL-0700_RLatLon0.09_PT043H.grib2 2026-05-03 08:57 504K
20260503T06Z_MSC_RDPS_WindU_IsbL-0750_RLatLon0.09_PT043H.grib2 2026-05-03 08:57 542K
20260503T06Z_MSC_RDPS_WindU_IsbL-0800_RLatLon0.09_PT043H.grib2 2026-05-03 08:57 580K
20260503T06Z_MSC_RDPS_WindU_IsbL-0850_RLatLon0.09_PT043H.grib2 2026-05-03 08:57 636K
20260503T06Z_MSC_RDPS_WindU_IsbL-0875_RLatLon0.09_PT043H.grib2 2026-05-03 08:57 654K
20260503T06Z_MSC_RDPS_WindU_IsbL-0900_RLatLon0.09_PT043H.grib2 2026-05-03 08:57 658K
20260503T06Z_MSC_RDPS_WindU_IsbL-0925_RLatLon0.09_PT043H.grib2 2026-05-03 08:57 665K
20260503T06Z_MSC_RDPS_WindU_IsbL-0950_RLatLon0.09_PT043H.grib2 2026-05-03 08:57 661K
20260503T06Z_MSC_RDPS_WindU_IsbL-0970_RLatLon0.09_PT043H.grib2 2026-05-03 08:57 655K
20260503T06Z_MSC_RDPS_WindU_IsbL-0985_RLatLon0.09_PT043H.grib2 2026-05-03 08:57 790K
20260503T06Z_MSC_RDPS_WindU_IsbL-1000_RLatLon0.09_PT043H.grib2 2026-05-03 08:57 783K
20260503T06Z_MSC_RDPS_WindU_IsbL-1015_RLatLon0.09_PT043H.grib2 2026-05-03 08:57 824K
20260503T06Z_MSC_RDPS_WindV_AGL-10m_RLatLon0.09_PT043H.grib2 2026-05-03 08:57 433K
20260503T06Z_MSC_RDPS_WindV_AGL-120m_RLatLon0.09_PT043H.grib2 2026-05-03 08:57 533K
20260503T06Z_MSC_RDPS_WindV_AGL-40m_RLatLon0.09_PT043H.grib2 2026-05-03 08:57 538K
20260503T06Z_MSC_RDPS_WindV_AGL-80m_RLatLon0.09_PT043H.grib2 2026-05-03 08:57 535K
20260503T06Z_MSC_RDPS_WindV_IsbL-0001_RLatLon0.09_PT043H.grib2 2026-05-03 08:57 250K
20260503T06Z_MSC_RDPS_WindV_IsbL-0005_RLatLon0.09_PT043H.grib2 2026-05-03 08:57 292K
20260503T06Z_MSC_RDPS_WindV_IsbL-0010_RLatLon0.09_PT043H.grib2 2026-05-03 08:57 300K
20260503T06Z_MSC_RDPS_WindV_IsbL-0020_RLatLon0.09_PT043H.grib2 2026-05-03 08:57 317K
20260503T06Z_MSC_RDPS_WindV_IsbL-0030_RLatLon0.09_PT043H.grib2 2026-05-03 08:57 356K
20260503T06Z_MSC_RDPS_WindV_IsbL-0050_RLatLon0.09_PT043H.grib2 2026-05-03 08:57 350K
20260503T06Z_MSC_RDPS_WindV_IsbL-0100_RLatLon0.09_PT043H.grib2 2026-05-03 08:57 339K
20260503T06Z_MSC_RDPS_WindV_IsbL-0150_RLatLon0.09_PT043H.grib2 2026-05-03 08:57 401K
20260503T06Z_MSC_RDPS_WindV_IsbL-0175_RLatLon0.09_PT043H.grib2 2026-05-03 08:57 328K
20260503T06Z_MSC_RDPS_WindV_IsbL-0200_RLatLon0.09_PT043H.grib2 2026-05-03 08:57 340K
20260503T06Z_MSC_RDPS_WindV_IsbL-0225_RLatLon0.09_PT043H.grib2 2026-05-03 08:57 369K
20260503T06Z_MSC_RDPS_WindV_IsbL-0250_RLatLon0.09_PT043H.grib2 2026-05-03 08:57 370K
20260503T06Z_MSC_RDPS_WindV_IsbL-0275_RLatLon0.09_PT043H.grib2 2026-05-03 08:57 382K
20260503T06Z_MSC_RDPS_WindV_IsbL-0300_RLatLon0.09_PT043H.grib2 2026-05-03 08:57 379K
20260503T06Z_MSC_RDPS_WindV_IsbL-0350_RLatLon0.09_PT043H.grib2 2026-05-03 08:57 386K
20260503T06Z_MSC_RDPS_WindV_IsbL-0400_RLatLon0.09_PT043H.grib2 2026-05-03 08:57 365K
20260503T06Z_MSC_RDPS_WindV_IsbL-0450_RLatLon0.09_PT043H.grib2 2026-05-03 08:57 367K
20260503T06Z_MSC_RDPS_WindV_IsbL-0500_RLatLon0.09_PT043H.grib2 2026-05-03 08:57 369K
20260503T06Z_MSC_RDPS_WindV_IsbL-0550_RLatLon0.09_PT043H.grib2 2026-05-03 08:57 474K
20260503T06Z_MSC_RDPS_WindV_IsbL-0600_RLatLon0.09_PT043H.grib2 2026-05-03 08:57 483K
20260503T06Z_MSC_RDPS_WindV_IsbL-0650_RLatLon0.09_PT043H.grib2 2026-05-03 08:57 501K
20260503T06Z_MSC_RDPS_WindV_IsbL-0700_RLatLon0.09_PT043H.grib2 2026-05-03 08:57 516K
20260503T06Z_MSC_RDPS_WindV_IsbL-0750_RLatLon0.09_PT043H.grib2 2026-05-03 08:57 537K
20260503T06Z_MSC_RDPS_WindV_IsbL-0800_RLatLon0.09_PT043H.grib2 2026-05-03 08:57 576K
20260503T06Z_MSC_RDPS_WindV_IsbL-0850_RLatLon0.09_PT043H.grib2 2026-05-03 08:57 621K
20260503T06Z_MSC_RDPS_WindV_IsbL-0875_RLatLon0.09_PT043H.grib2 2026-05-03 08:57 644K
20260503T06Z_MSC_RDPS_WindV_IsbL-0900_RLatLon0.09_PT043H.grib2 2026-05-03 08:57 657K
20260503T06Z_MSC_RDPS_WindV_IsbL-0925_RLatLon0.09_PT043H.grib2 2026-05-03 08:57 665K
20260503T06Z_MSC_RDPS_WindV_IsbL-0950_RLatLon0.09_PT043H.grib2 2026-05-03 08:57 662K
20260503T06Z_MSC_RDPS_WindV_IsbL-0970_RLatLon0.09_PT043H.grib2 2026-05-03 08:57 659K
20260503T06Z_MSC_RDPS_WindV_IsbL-0985_RLatLon0.09_PT043H.grib2 2026-05-03 08:57 795K
20260503T06Z_MSC_RDPS_WindV_IsbL-1000_RLatLon0.09_PT043H.grib2 2026-05-03 08:57 788K
20260503T06Z_MSC_RDPS_WindV_IsbL-1015_RLatLon0.09_PT043H.grib2 2026-05-03 08:57 781K